Regional Weather Roundup
Issued by NWS

Home | Current Version | Previous Version | Text Only | Print | Product List | Glossary On
Versions: 1 2 3 4 5 6 7 8 9 10 11 12 13 14 15 16 17 18 19 20 21 22 23 24 25 26 27 28 29 30 31 32 33 34 35 36 37 38 39 40 41 42 43 44 45 46 47 48 49 50
000
ASUS43 KLSX 030207
RWRMO

WEATHER SUMMARY FOR MISSOURI
NATIONAL WEATHER SERVICE SPRINGFIELD MO
900 PM CDT TUE SEP 02 2014

NOTE: "FAIR" INDICATES FEW OR NO CLOUDS BELOW 12,000 FEET WITH NO
       SIGNIFICANT WEATHER AND/OR OBSTRUCTIONS TO VISIBILITY.
       CURRENT SKY AND/OR WEATHER CONDITIONS ARE NOT AVAILABLE FOR
       CHILLICOTHE AND FARMINGTON.

MOZ001>031-035>038-043-044-053-054-030300-
...NORTHERN AND WESTERN MISSOURI...

CITY           SKY/WX    TMP DP  RH WIND       PRES   REMARKS
KANSAS CTY INT CLEAR     74  67  78 CALM      29.96R
KANSAS C DTWN  CLEAR     78  67  68 CALM      29.95R
LEE`S SUMMIT   CLEAR     75  69  81 SE3       29.97R
ST JOSEPH      CLEAR     72  67  84 SE5       29.96R
CHILLICOTHE      N/A     70  68  93 CALM      29.98R
KIRKSVILLE     CLEAR     67  65  93 CALM      29.98R

$$
MOZ066>068-077>081-088>096-101>105-030300-
...SOUTHWEST MISSOURI...

CITY           SKY/WX    TMP DP  RH WIND       PRES   REMARKS
SPRINGFIELD    CLEAR     71  66  84 S8        30.02R
JOPLIN         MOCLDY    74  68  81 SE5       30.00R

$$
MOZ032>034-039>042-045>050-055>058-069>072-030300-
...CENTRAL MISSOURI...

CITY           SKY/WX    TMP DP  RH WIND       PRES   REMARKS
COLUMBIA       CLEAR     74  69  85 SW3       29.99R
JEFFERSON CITY CLEAR     74  69  85 E3        29.98R
ROLLA          FOG       67  66  97 CALM      30.00R VSB 1/2
SEDALIA        CLEAR     72  68  87 CALM      29.98R
WHITEMAN AFB   CLEAR     71  69  96 SE3       29.97R
OSAGE BEACH    CLEAR     70  66  88 CALM      30.00R

$$
MOZ051-052-059>065-030300-
...EAST CENTRAL MISSOURI...

CITY           SKY/WX    TMP DP  RH WIND       PRES   REMARKS
ST LOUIS INTL  PTCLDY    76  68  76 CALM      29.99R
SPIRIT OF STL  CLEAR     71  69  93 CALM      29.98R
ST CHARLES     CLEAR     73  69  87 CALM      29.98R

$$
MOZ072>076-082>087-097>100-106>115-030300-
...SOUTH CENTRAL AND SOUTHEAST MISSOURI...

CITY           SKY/WX    TMP DP  RH WIND       PRES   REMARKS
CAPE GIRARDEAU CLEAR     73  71  93 CALM      29.98R
FARMINGTON     CLEAR     70  66  88 CALM      30.03R
POPLAR BLUFF   PTCLDY    72  67  84 N3        29.97R
WEST PLAINS    CLEAR     68  32  26 CALM      30.03R

$$



USA.gov is the U.S. government's official web portal to all federal, state and local government web resources and services.